Orbital Elements at Epoch 2459117.5 (2020-Sep-25.0) TDB
Reference: JPL 2 (heliocentric ecliptic J2000)
Element | Value | Uncertainty (1-sigma) | Units |
e | .573010823054206 | 0.0020142 | |
a | 2.322890206261601 | 0.010952 | au |
q | .9918489773070868 | 2.5313e-06 | au |
i | 8.001008796077475 | 0.019656 | deg |
node | 187.4561349101602 | 0.00049759 | deg |
peri | 200.7004568177159 | 0.0036586 | deg |
M | 353.8517973339734 | 0.04718 | deg |
tp | 2459139.584477333126 (2020-Oct-17.08447733) | 0.013285 | TDB |
period | 1293.127808531322 3.54 | 9.1453 0.02504 | d yr |
n | .2783947554332408 | 0.0019689 | deg/d |
Q | 3.653931435216116 | 0.017228 | au |
|
| | Orbit Determination Parameters
Additional Information
|